Regional Weather Roundup
Issued by NWS

Home | Current Version | Previous Version | Graphics & Text | Print | Product List | Glossary On
Versions: 1 2 3 4 5 6 7 8 9 10 11 12 13 14 15 16 17 18 19 20 21 22 23 24 25 26 27 28 29 30 31 32 33 34 35 36 37 38 39 40 41 42 43 44 45 46 47 48 49 50
000
ASUS43 KFSD 281010
RWRSD

WEATHER ROUNDUP FOR SOUTH DAKOTA
NATIONAL WEATHER SERVICE SIOUX FALLS SD
500 AM CDT SUN MAY 28 2017

NOTE: "FAIR" INDICATES FEW OR NO CLOUDS BELOW 12,000 FEET WITH NO
SIGNIFICANT WEATHER AND/OR OBSTRUCTIONS TO VISIBILITY.


SDZ001>005-009-010-012>017-281100-
NORTHWEST AND NORTH CENTRAL SOUTH DAKOTA

CITY           SKY/WX    TMP DP  RH WIND       PRES   REMARKS
BUFFALO          N/A     52  41  66 NW15      29.95R
FAITH            N/A     50  44  80 W13       29.95R
MOBRIDGE       CLEAR     50  43  77 NW10      29.86R
$$

SDZ012>016-024>037-041>051-057-063-072>074-281100-
SOUTHWEST AND SOUTH CENTRAL SOUTH DAKOTA

CITY           SKY/WX    TMP DP  RH WIND       PRES   REMARKS
RAPID CTY ARPT PTCLDY    56  38  50 W12       30.02R
PIERRE         MOCLDY    56  44  64 NW15G23   29.88F
CUSTER         CLEAR     48  34  58 W6        30.13S
ELLSWORTH AFB  CLEAR     47  39  73 W9        30.01S
PHILIP         CLOUDY    48  43  82 W8        29.96S
PINE RIDGE     CLEAR     46  42  86 SW6       30.06F
SPEARFISH      MOCLDY    57  37  47 W12G20    30.07R
WINNER         FAIR      52  44  74 W10       29.92F
$$

SDZ004>011-016>023-039-040-281100-
NORTHEAST SOUTH DAKOTA

CITY           SKY/WX    TMP DP  RH WIND       PRES   REMARKS
ABERDEEN       CLEAR     45  41  86 W3        29.84S
WATERTOWN      CLEAR     50  45  83 NW7       29.82F
BROOKINGS      CLEAR     50  45  83 W7        29.84S
SISSETON         N/A     49  45  86 NW7       29.79F
$$

SDZ017-020-022-023-036>040-048>070-281100-
SOUTHEAST SOUTH DAKOTA

CITY           SKY/WX    TMP DP  RH WIND       PRES   REMARKS
SIOUX FALLS    CLEAR     54  48  80 W9        29.84S
HURON          CLEAR     46  44  93 NE5       29.85S
CHAMBERLAIN    PTCLDY    53  46  78 W8        29.89F
MITCHELL       CLEAR     51  45  79 W9        29.86F
YANKTON        CLEAR     54  47  77 W12       29.86F
$$

ABBREVIATIONS USED IN REMARKS
   TC - TEMPERATURE IN CELSIUS
  WCI - WIND CHILL INDEX
   HX - HEAT INDEX
  VSB - VISIBILITY





USA.gov is the U.S. government's official web portal to all federal, state and local government web resources and services.